Location: Prairie State College
(41.5244°N, 87.6382°W)
Time: 00:04:55
(UTC-06:00)

ISS - All Passes

Search period start: 25 February 2018 00:00
Search period end: 07 March 2018 00:00
Orbit: 402 x 407 km, 51.6° (Epoch: 25 February)

Date Brightness Start Highest point End Pass type
(mag) Time Alt. Az. Time Alt. Az. Time Alt. Az.
25 Feb - 06:24:23 10° SW 06:27:36 57° SE 06:30:50 10° ENE daylight
25 Feb - 08:01:31 10° W 08:04:17 24° NNW 08:07:03 10° NE daylight
25 Feb - 09:39:47 10° NW 09:41:37 14° N 09:43:27 10° NNE daylight
25 Feb - 11:16:23 10° NW 11:19:00 22° NNE 11:21:36 10° ENE daylight
25 Feb - 12:52:31 10° WNW 12:55:47 76° SW 12:59:01 10° SE daylight
26 Feb - 05:32:34 10° SSW 05:35:28 29° SE 05:38:21 10° ENE visible
26 Feb - 07:08:49 10° W 07:11:53 35° NNW 07:14:56 10° NE daylight
26 Feb - 08:47:04 10° NW 08:49:04 15° N 08:51:03 10° NNE daylight
26 Feb - 10:24:15 10° NNW 10:26:31 17° NNE 10:28:47 10° ENE daylight
26 Feb - 12:00:17 10° NW 12:03:31 58° NNE 12:06:44 10° ESE daylight
26 Feb - 13:37:34 10° W 13:39:41 16° SW 13:41:47 10° S daylight
27 Feb - 04:41:19 10° S 04:43:23 16° SE 04:45:27 10° E visible
27 Feb - 06:16:18 10° WSW 06:19:32 60° NNW 06:22:47 10° NE daylight
27 Feb - 07:54:14 10° WNW 07:56:32 17° NNW 07:58:49 10° NNE daylight
27 Feb - 09:32:00 10° NNW 09:33:58 15° N 09:35:56 10° NE daylight
27 Feb - 11:08:07 10° NW 11:11:10 35° NNE 11:14:12 10° E daylight
27 Feb - 12:44:41 10° WNW 12:47:36 30° SW 12:50:30 10° SSE daylight
28 Feb - 05:24:00 10° SW 05:27:15 73° SE 05:30:32 10° ENE visible
28 Feb - 07:01:23 10° WNW 07:04:01 22° NNW 07:06:39 10° NE daylight
28 Feb - 08:39:33 10° NNW 08:41:24 14° N 08:43:14 10° NE daylight
28 Feb - 10:16:00 10° NW 10:18:44 24° NNE 10:21:28 10° ENE daylight
28 Feb - 11:52:12 10° WNW 11:55:25 59° SW 11:58:37 10° SE daylight
01 Mar - 04:32:00 10° SSW 04:35:03 37° SE 04:38:06 10° ENE visible
01 Mar - 06:08:35 10° W 06:11:33 31° NNW 06:14:32 10° NE daylight
01 Mar - 07:46:53 10° NW 07:48:47 14° N 07:50:42 10° NNE daylight
01 Mar - 09:23:50 10° NNW 09:26:14 18° NNE 09:28:37 10° ENE daylight
01 Mar - 10:59:53 10° NW 11:03:10 72° NE 11:06:24 10° ESE daylight
01 Mar - 12:37:39 10° W 12:39:14 13° SW 12:40:48 10° SSW daylight
02 Mar - 03:40:28 10° S 03:42:54 20° SE 03:45:21 10° E visible
02 Mar - 05:15:57 10° WSW 05:19:09 49° NNW 05:22:21 10° NE visible
02 Mar - 06:54:02 10° NW 06:56:13 16° NNW 06:58:24 10° NNE daylight
02 Mar - 08:31:36 10° NNW 08:33:40 15° N 08:35:44 10° NE daylight
02 Mar - 10:07:39 10° NW 10:10:48 41° NNE 10:13:54 10° E daylight
02 Mar - 11:44:25 10° WNW 11:47:08 24° SW 11:49:50 10° S daylight
03 Mar - 02:50:21 10° SE 02:50:49 10° SE 02:51:18 10° ESE visible
03 Mar - 04:23:31 10° SW 04:26:48 89° NW 04:30:06 10° NE visible
03 Mar - 06:01:07 10° WNW 06:03:39 20° NNW 06:06:10 10° NNE daylight
03 Mar - 07:39:11 10° NNW 07:41:03 14° N 07:42:55 10° NE daylight
03 Mar - 09:15:29 10° NW 09:18:21 27° NNE 09:21:12 10° E daylight
03 Mar - 10:51:47 10° WNW 10:54:57 46° SW 10:58:05 10° SE daylight
04 Mar - 03:31:22 10° SW 03:34:32 46° SE 03:37:42 10° ENE visible
04 Mar - 05:08:16 10° W 05:11:07 27° NNW 05:13:59 10° NE visible
04 Mar - 06:46:33 10° NW 06:48:25 14° N 06:50:17 10° NNE daylight
04 Mar - 08:23:18 10° NNW 08:25:49 20° NNE 08:28:20 10° ENE daylight
04 Mar - 09:59:23 10° NW 10:02:40 89° NE 10:05:55 10° SE daylight
04 Mar - 11:38:14 10° WSW 11:38:39 10° SW 11:39:03 10° SW daylight
05 Mar - 02:39:36 10° S 02:42:19 24° SE 02:45:02 10° ENE visible
05 Mar - 04:15:32 10° W 04:18:39 41° NNW 04:21:48 10° NE visible
05 Mar - 05:53:43 10° NW 05:55:47 16° N 05:57:51 10° NNE visible
05 Mar - 07:31:03 10° NNW 07:33:14 16° N 07:35:25 10° NE daylight
05 Mar - 09:07:05 10° NW 09:10:18 49° NNE 09:13:29 10° ESE daylight
05 Mar - 10:44:06 10° W 10:46:32 19° SW 10:48:58 10° S daylight
06 Mar - 01:48:35 10° SSE 01:50:11 13° SE 01:51:46 10° E night (unlit)
06 Mar - 03:22:59 10° WSW 03:26:15 72° NW 03:29:32 10° NE visible
06 Mar - 05:00:46 10° WNW 05:03:10 19° NNW 05:05:35 10° NNE visible
06 Mar - 06:38:41 10° NNW 06:40:35 14° N 06:42:30 10° NE daylight
06 Mar - 08:14:52 10° NW 08:17:50 31° NNE 08:20:47 10° E daylight
06 Mar - 09:51:17 10° WNW 09:54:20 37° SW 09:57:22 10° SSE daylight
